weather.gov     
National Weather Service

Regional Weather Roundup
NWS Homepage
This page is being discontinued on March 12, 2014.
The same data is available at this site. Please update your bookmarks.
Thank you, and we apologize for the inconvenience.
Please send an email to SR-SRH.Webmaster@noaa.gov with any concerns.


Current Version
Previous Version:    01  02  03  04  05  06  07  08  09  10  11  12  13  14  15  16  17  18  19  20  21  22  23  24  25  26  27  28  29  30  
   31  32  33  34  35  36  37  38  39  40  41  42  43  44  45  46  47  48  49  50  51  52  53  
[Printable]
082
ASUS43 KLMK 020210
RWRKY
KENTUCKY REGIONAL WEATHER ROUNDUP
NATIONAL WEATHER SERVICE LOUISVILLE KY
1000 PM EDT FRI AUG 01 2014

NOTE "FAIR" INDICATES FEW OR NO CLOUDS BELOW 12,000 FEET
WITH NO SIGNIFICANT WEATHER AND/OR OBSTRUCTIONS TO VISIBILITY.

KYZ001>023-026-027-061>063-070>075-020300-
WESTERN AND SOUTH CENTRAL KENTUCKY

CITY           SKY/WX    TMP DP  RH WIND       PRES   REMARKS
PADUCAH        PTCLDY    73  68  84 CALM      30.03R
HENDERSON      CLOUDY   N/A N/A N/A MISG        N/A
OWENSBORO      PTCLDY    78  63  60 CALM      30.05R
HOPKINSVILLE   MOCLDY    76  60  58 N2        30.03R
BOWLING GREEN  CLOUDY    76  56  49 CALM      30.05R
GLASGOW        CLEAR     69  60  72 CALM      30.05S
$$

KYZ024-025-028>034-038-045-046-053-020300-
NORTH CENTRAL KENTUCKY

CITY           SKY/WX    TMP DP  RH WIND       PRES   REMARKS
LOUISVILLE/SDF PTCLDY    79  57  46 W3        30.05R
LOUISVILLE/LOU PTCLDY    76  58  53 CALM      30.06R
FORT KNOX      CLEAR     67  62  85 N2        30.05R
$$

KYZ035>037-039>044-047>052-055>060-089>105-020300-
NORTHEAST KENTUCKY

CITY           SKY/WX    TMP DP  RH WIND       PRES   REMARKS
LEXINGTON      PTCLDY    73  61  65 CALM      30.08R
COVINGTON      PTCLDY    68  60  75 CALM      30.07R
FRANKFORT      CLEAR     67  62  84 CALM      30.06R
$$

KYZ054-064>069-076>088-106>120-020300-
SOUTHEAST KENTUCKY

CITY           SKY/WX    TMP DP  RH WIND       PRES   REMARKS
JACKSON        CLOUDY    73  64  73 CALM      30.08R
LONDON         MOCLDY    73  64  73 CALM      30.08R
SOMERSET       CLEAR     70  64  83 CALM      30.08R
MIDDLESBORO    MOCLDY    71  66  85 CALM      30.09R
MONTICELLO     CLEAR     68  66  93 CALM      30.08R
$$





U.S. Dept. of Commerce
NOAA National Weather Service
1325 East West Highway
Silver Spring, MD 20910
E-mail: w-nws.webmaster@noaa.gov
Page last modified: May 16, 2007
NATIONAL WEATHER SERVICE: for Safety, for Work, for Fun - FOR LIFE